Wind_Speed
9 7 8 8 9 9 9 10 6 1 4 3 5 2 3 4 5 7 7 6 5 4 5 8 7 10 13 13 13 13 13 12 13 13 12 13 13 12 13 12 12 12 12 14 15 15 14 14 14 13 12 12 11 11 11 11 10 10 10 10 10 9 9 9 8 8 8 8 8 8 8 8 8 8 8 7 7 7 8 8 8 8 7 7 6 6
9 8 10 11 6 4 7 8 6 3 4 5 5 3 3 4 6 5 6 9 5 3 4 7 8 9 11 13 12 12 13 13 13 14 13 14 13 12 13 13 13 11 11 14 15 15 15 14 14 13 12 13 12 12 12 12 11 11 10 10 10 10 9 8 8 8 7 8 7 7 7 8 8 8 8 8 8 7 8 8 8 7 7 7 7 6
9 9 12 11 3 2 4 5 6 4 5 5 5 4 2 4 7 6 6 10 6 2 3 6 6 6 10 12 12 12 12 11 12 13 12 13 13 12 13 13 13 12 11 13 14 15 16 15 15 13 12 13 13 12 13 12 12 11 10 10 10 10 9 8 8 8 7 7 6 6 6 7 8 8 7 7 7 7 8 8 7 7 7 7 6 6
9 10 12 8 3 6 6 5 7 5 4 5 5 3 3 6 5 3 6 9 5 2 3 6 4 3 7 10 10 11 11 10 11 12 11 12 12 12 13 13 13 14 13 12 13 15 16 16 15 14 13 13 13 12 13 13 13 12 11 11 11 10 9 8 8 8 7 7 6 6 6 6 7 7 7 7 7 6 7 8 7 7 7 7 6 6
8 5 8 8 5 9 7 7 8 6 5 5 5 3 4 7 3 4 8 9 4 2 4 7 5 4 7 8 9 9 9 10 11 12 12 11 11 12 13 13 14 14 13 13 14 14 15 16 15 14 13 13 13 13 13 14 13 12 12 12 11 11 10 9 9 8 7 7 7 6 7 7 7 7 7 7 7 7 7 8 8 8 8 7 7 7
7 4 6 9 7 9 8 8 9 7 5 5 5 3 1 5 6 9 12 9 4 4 6 7 4 3 7 8 9 9 10 11 11 13 14 12 12 12 12 13 14 14 14 13 14 14 16 16 15 14 14 14 14 13 13 14 13 12 13 13 12 11 10 10 9 9 7 7 7 7 8 8 8 8 8 8 8 8 8 8 8 8 8 8 7 7
6 7 8 9 8 10 8 7 8 7 6 3 4 1 0 4 9 11 11 7 3 3 6 8 3 2 6 8 10 11 12 13 12 14 15 13 12 12 11 12 13 14 14 13 13 15 16 16 16 15 15 14 14 14 13 13 13 13 13 14 13 12 11 10 10 10 8 6 6 6 7 8 8 8 8 7 7 7 7 7 8 8 8 8 7 7
5 7 8 9 9 10 8 7 7 7 7 2 6 2 2 5 9 10 9 4 1 3 5 8 5 1 3 7 10 12 14 15 14 15 15 14 13 13 13 13 13 13 13 13 13 14 16 16 16 16 15 15 14 14 14 14 14 14 13 14 14 12 12 11 11 11 8 7 6 6 6 6 7 7 8 8 7 7 6 7 8 8 8 8 7 7
8 9 9 10 10 8 8 6 5 8 7 3 5 1 4 5 7 8 6 4 4 3 4 7 7 3 2 4 8 11 13 15 15 16 17 16 15 15 14 14 14 14 14 14 13 14 16 16 16 16 16 15 15 14 14 14 14 14 14 14 14 13 12 12 12 12 9 7 6 6 6 6 6 6 7 8 7 7 6 6 6 6 7 8 7 7
7 8 6 9 10 7 8 5 3 8 5 3 3 3 5 6 6 6 5 4 4 4 3 7 10 5 2 5 8 9 11 13 14 14 15 16 16 16 15 15 15 14 13 14 15 16 17 17 17 17 16 16 15 14 14 14 14 14 14 14 14 14 13 13 14 12 10 8 7 6 6 6 6 6 7 7 7 7 6 6 6 6 6 7 8 8
5 4 3 7 8 6 4 2 4 8 4 2 5 5 6 6 5 4 3 1 2 4 3 9 12 8 4 6 8 7 7 11 12 11 14 15 16 17 15 15 15 14 13 13 14 16 18 18 17 16 16 15 15 14 14 14 14 14 14 14 15 14 13 13 14 13 11 10 9 7 7 7 7 7 7 7 8 7 7 7 6 6 6 6 7 7
6 6 5 6 8 6 3 2 4 7 6 6 6 5 6 5 4 4 3 2 4 3 3 8 11 9 5 3 7 7 8 11 11 11 14 16 16 16 15 15 14 14 14 14 13 14 17 18 17 16 16 15 14 14 14 14 14 13 13 14 15 15 14 14 14 14 12 11 10 9 8 7 7 7 8 8 8 8 7 7 7 6 6 6 6 7
7 8 7 8 9 8 8 6 5 6 8 9 6 6 7 5 5 5 4 4 4 2 4 7 9 8 5 2 8 10 10 11 10 10 13 16 17 16 15 15 14 13 14 15 13 13 14 16 16 16 15 14 14 14 14 14 14 13 13 14 15 15 15 14 14 14 13 12 11 11 10 8 7 7 7 7 7 7 7 6 7 7 7 6 6 7
7 9 10 10 8 9 11 7 6 7 9 10 8 8 8 6 6 7 5 4 4 3 6 7 7 5 3 4 9 12 12 11 11 10 10 13 15 15 15 15 13 13 13 14 14 13 13 15 16 16 16 15 15 15 15 15 14 13 13 14 15 15 15 15 14 14 14 13 12 12 11 10 9 8 8 7 6 7 6 6 7 7 7 7 7 7
7 7 11 13 8 10 13 10 6 7 9 10 8 8 8 6 5 5 4 4 3 3 5 7 5 2 2 4 6 9 11 10 12 11 9 10 12 13 14 14 14 14 13 12 13 13 14 16 17 16 16 16 16 16 16 15 15 14 14 15 15 15 16 16 15 15 14 14 13 12 12 10 10 9 8 7 6 6 6 6 6 6 6 6 6 6
7 3 7 14 10 10 15 12 7 7 8 8 8 8 8 7 6 3 3 3 1 3 3 4 3 1 3 5 5 7 10 10 12 14 11 8 10 12 13 14 14 14 13 13 13 13 15 18 17 17 17 16 16 16 16 16 16 16 15 15 16 16 16 16 16 15 14 14 13 13 13 11 10 9 8 7 6 7 7 6 6 6 6 6 6 6
6 3 7 13 11 10 14 13 11 9 7 6 8 10 7 6 7 5 3 2 2 4 4 4 4 3 4 5 7 8 10 11 12 15 14 11 11 13 13 14 14 13 13 13 13 13 15 17 17 17 17 16 15 16 16 16 17 17 16 16 16 16 16 16 16 15 15 14 13 13 13 12 11 10 9 8 7 8 7 7 7 7 6 6 6 6
4 3 8 12 13 12 12 13 14 13 9 5 8 9 6 5 7 5 4 3 5 5 3 4 6 5 5 4 7 9 10 11 12 14 16 15 13 13 12 13 14 14 13 13 13 13 14 16 17 16 16 16 16 16 17 17 17 16 16 16 17 17 16 16 16 16 15 14 13 13 13 13 12 12 11 9 8 8 8 8 8 7 7 7 6 6
3 3 7 11 13 12 10 11 12 14 13 8 6 8 8 6 6 6 4 4 6 6 3 5 5 5 5 4 8 11 11 12 13 12 15 17 15 13 12 12 13 14 13 12 13 12 13 16 16 16 16 16 16 16 16 17 16 15 15 16 16 17 17 16 15 15 15 14 14 12 12 13 12 12 11 9 8 8 8 8 8 8 7 7 7 6
3 5 4 8 10 11 10 10 9 11 12 9 6 8 8 6 7 6 5 4 4 6 4 4 4 4 3 3 7 10 10 11 14 13 14 16 16 13 11 11 12 12 11 11 11 11 12 15 17 16 16 16 16 16 15 16 16 16 16 16 16 16 16 16 15 15 15 15 14 12 11 12 12 12 11 10 9 8 8 8 8 7 7 7 7 7
3 4 3 6 7 8 9 9 10 10 11 9 7 9 8 7 7 6 6 5 4 5 5 4 4 3 3 2 3 7 8 9 12 13 12 13 15 14 11 10 10 10 10 11 11 11 12 15 16 16 16 15 15 15 15 15 16 16 15 15 16 16 16 16 15 15 15 14 14 13 12 12 12 12 12 11 10 9 8 8 8 7 7 7 7 7
3 4 4 4 7 9 10 12 13 9 10 11 9 9 9 8 8 7 7 6 5 5 4 4 4 2 4 1 1 5 6 7 11 13 12 12 15 15 12 10 10 9 10 10 11 11 12 13 15 15 15 15 15 15 15 15 15 16 15 15 16 16 16 16 16 15 14 14 14 14 13 12 12 12 13 12 11 11 10 9 9 8 7 7 8 8
2 3 5 4 5 5 5 9 9 7 8 12 11 10 10 9 9 8 7 6 6 6 4 4 4 2 4 2 2 4 5 7 9 11 11 12 13 13 12 10 9 9 9 9 9 10 11 12 12 13 14 14 14 15 15 15 14 15 16 16 16 16 16 16 15 14 14 14 14 14 13 12 12 12 13 13 12 12 11 10 10 9 9 8 8 8
2 3 5 5 4 2 4 5 6 6 8 11 11 11 11 10 11 10 8 5 5 7 6 6 5 3 4 3 4 4 5 7 8 10 11 11 11 12 11 9 8 7 7 7 7 8 9 11 11 11 12 12 13 14 15 15 15 15 16 16 16 16 16 15 14 13 14 14 14 13 13 12 12 12 12 13 13 12 12 11 10 10 10 10 9 9
2 2 4 5 6 6 5 6 8 9 9 9 10 12 12 13 15 14 9 5 5 8 8 7 5 3 5 4 6 6 7 8 8 9 11 11 11 12 10 8 7 7 6 6 5 5 7 8 9 9 9 11 11 12 14 14 14 15 15 16 15 15 15 14 13 13 13 13 13 13 13 12 12 12 12 12 12 12 12 12 11 10 10 10 10 9
2 2 3 5 6 7 7 6 5 7 9 9 9 10 11 13 15 12 8 6 6 7 7 7 4 3 6 6 7 8 9 8 8 9 9 9 10 11 11 9 7 6 7 7 6 5 4 5 7 7 7 8 10 11 13 14 14 14 14 14 14 14 15 14 14 13 13 12 12 12 13 12 12 12 12 12 12 12 12 12 11 11 10 11 11 10
3 1 1 2 2 2 0 1 2 1 8 10 8 10 12 13 14 11 8 9 7 6 7 7 6 4 7 9 10 10 11 9 8 7 8 8 8 9 10 11 9 7 6 6 6 5 5 5 5 6 6 6 7 8 10 12 13 14 14 14 14 14 15 15 15 15 14 13 12 12 12 12 11 11 11 11 11 11 11 11 11 11 11 11 11 12
3 2 1 1 2 3 3 3 3 0 5 6 6 10 12 12 13 12 11 9 7 7 8 6 8 8 7 11 12 12 12 10 9 8 8 8 8 8 8 10 11 10 8 7 6 7 7 7 7 8 7 6 6 7 8 10 12 12 13 14 14 14 15 15 15 15 14 14 13 12 11 11 10 10 10 10 10 10 10 11 10 10 10 10 11 12
4 2 1 1 4 5 3 3 3 3 4 3 2 4 7 10 12 13 13 9 6 7 5 4 8 8 5 11 13 12 12 11 10 9 8 8 8 8 9 9 10 11 11 11 10 9 8 7 7 8 8 7 8 8 9 9 10 12 14 14 14 15 15 14 14 15 16 15 14 13 12 10 9 9 9 9 10 10 10 10 10 10 10 10 11 11
3 1 0 1 4 7 5 5 4 4 6 6 5 4 1 5 8 9 9 6 5 6 4 2 6 4 3 9 11 10 10 10 9 8 8 8 9 9 9 10 10 10 11 11 10 10 9 8 8 8 8 9 10 10 11 11 12 14 15 15 15 15 14 14 15 16 16 14 13 12 11 11 10 9 10 10 10 10 11 11 11 10 10 10 10 10
2 2 2 4 2 6 6 5 5 5 7 8 9 9 6 1 4 4 3 3 5 6 4 5 7 3 4 8 11 11 9 9 9 9 9 8 9 9 9 9 9 9 9 9 8 8 8 9 9 10 10 10 12 12 11 12 14 15 15 16 15 13 13 13 15 16 15 13 13 12 10 10 11 11 11 11 10 10 11 11 11 11 11 11 10 10
3 2 2 5 4 5 5 4 5 5 6 7 11 13 10 5 1 0 0 1 3 4 5 6 5 3 6 9 10 11 10 10 11 10 8 8 8 9 9 8 8 8 7 7 7 6 7 8 9 10 11 11 12 15 15 15 16 16 16 16 14 12 12 13 14 14 12 10 12 12 10 10 10 10 11 11 11 11 11 12 12 12 12 11 11 11
4 3 4 5 5 3 2 1 3 4 6 3 8 10 8 7 5 3 1 2 3 3 2 2 1 2 7 10 10 11 11 11 11 9 8 8 9 9 8 7 8 7 7 7 7 6 7 8 6 7 9 10 11 14 16 16 17 16 15 15 15 14 14 13 12 11 9 8 9 9 9 9 9 9 9 10 11 11 12 13 13 14 13 12 11 11
4 4 3 2 4 5 1 3 2 6 6 3 5 6 6 7 7 5 4 4 4 3 3 3 3 2 7 10 10 11 11 9 10 9 7 8 8 9 9 8 8 8 8 9 9 9 10 12 12 11 13 13 12 14 17 17 17 17 15 14 14 14 14 13 12 11 9 8 7 7 8 8 9 9 10 10 9 9 9 11 12 13 13 12 12 12
4 4 3 2 4 5 3 4 6 5 2 4 4 6 6 5 6 6 3 4 5 4 5 4 3 3 5 7 8 11 10 9 9 8 8 8 8 9 10 9 10 10 9 10 11 11 13 15 14 15 16 16 16 18 21 21 21 21 20 18 15 13 13 13 13 12 10 9 8 8 9 8 8 8 7 7 7 7 7 8 8 8 9 9 10 11
5 3 3 3 3 5 5 6 6 3 4 4 3 8 7 4 6 6 0 4 6 5 5 5 4 3 4 6 8 10 10 9 8 7 7 8 8 9 10 9 10 10 10 12 13 14 16 16 16 17 18 20 21 21 21 22 23 23 23 22 20 17 15 15 15 13 12 11 11 11 10 10 10 9 9 8 7 7 7 7 6 6 6 7 8 8
5 3 3 4 3 5 8 6 3 3 4 3 3 7 7 6 8 7 1 6 8 6 4 4 3 3 5 7 9 10 11 10 8 6 7 7 7 8 10 11 12 13 15 16 17 17 17 17 17 18 17 20 23 23 22 21 22 24 24 23 22 20 18 17 16 14 13 12 11 11 10 9 10 10 10 10 9 9 8 7 7 7 6 6 6 6
3 3 3 4 3 4 8 7 5 5 4 2 5 7 8 7 7 7 2 4 8 9 5 2 2 3 6 9 11 11 11 9 7 6 6 7 8 10 12 14 16 17 19 20 19 18 18 18 17 16 16 18 21 23 22 20 20 23 23 21 21 22 19 17 14 12 12 12 12 11 10 10 10 10 9 10 10 10 9 8 9 9 8 7 7 7
1 1 3 5 5 5 7 8 7 5 2 4 7 9 10 8 6 5 4 2 8 10 6 2 2 3 6 10 11 10 9 7 7 7 5 7 11 13 14 15 16 17 18 18 18 18 19 19 18 17 16 16 17 19 20 18 17 18 18 17 20 22 20 17 14 12 11 12 12 12 11 10 10 10 9 9 10 10 10 10 10 9 8 7 8 8
1 2 3 5 6 5 6 7 4 2 4 7 10 11 9 7 4 6 6 2 8 11 8 3 1 3 7 10 10 9 6 4 5 9 9 10 13 14 14 14 15 16 17 16 17 18 19 19 19 19 18 16 15 16 17 17 17 17 16 16 18 18 17 16 13 10 10 11 11 11 12 11 11 10 10 10 10 10 11 11 10 10 9 8 8 7
1 1 1 3 4 3 5 6 3 4 5 8 11 10 8 4 3 5 2 2 8 11 8 5 1 3 7 9 8 6 1 1 7 13 14 13 14 15 15 16 17 17 17 17 18 18 18 17 17 17 16 15 15 15 14 15 15 15 15 15 16 15 13 13 11 8 8 9 10 11 11 12 12 12 11 11 11 10 10 10 10 10 9 8 8 8
1 1 0 1 2 1 4 5 4 5 5 10 12 9 7 4 3 1 4 6 8 9 8 6 1 3 6 7 6 4 6 10 12 14 14 14 14 15 17 19 19 18 18 17 17 17 17 16 16 16 15 14 14 14 13 14 13 13 13 14 14 13 11 10 10 8 7 8 9 10 10 11 11 10 10 11 11 11 10 9 9 8 8 8 9 9
3 2 0 1 2 2 3 5 4 3 5 12 12 6 5 6 3 4 7 7 7 7 7 6 1 3 5 6 6 6 10 12 11 12 12 12 13 15 17 18 18 18 19 18 17 16 17 16 16 15 14 13 13 12 12 13 13 11 12 12 11 10 10 10 9 8 7 7 9 9 8 9 8 8 8 9 9 9 9 8 8 7 7 7 8 8
3 4 2 3 3 3 2 1 1 2 5 9 8 4 5 6 5 6 7 6 6 6 5 4 2 1 3 6 7 8 10 10 9 9 9 10 11 14 16 16 17 18 18 18 17 17 16 15 14 13 12 12 12 11 11 12 13 12 11 10 9 8 8 8 8 7 6 6 7 7 7 7 7 6 7 6 6 7 6 6 6 6 5 5 5 5
4 4 3 3 4 4 4 4 4 3 3 5 5 5 6 6 6 7 6 5 6 6 5 4 3 1 2 5 7 8 9 9 8 7 6 6 7 10 11 13 14 15 15 15 15 15 14 14 14 13 12 12 11 11 10 11 13 13 11 9 8 8 8 7 7 7 6 6 6 5 5 5 5 5 5 5 5 5 4 4 4 4 3 3 3 3
4 2 3 1 3 5 5 5 4 4 5 5 5 5 6 7 7 7 6 6 6 6 6 5 4 2 1 6 9 8 8 10 10 9 7 6 5 7 9 9 10 10 10 11 11 11 11 11 12 12 12 12 11 10 10 10 11 11 10 9 8 8 7 7 7 7 6 5 5 4 4 5 5 5 5 4 4 4 3 3 3 3 2 2 2 2
3 1 2 0 3 3 3 5 5 5 6 6 5 6 7 9 9 8 7 6 6 7 6 6 5 4 3 7 10 9 8 9 10 9 8 7 7 9 10 10 9 9 9 9 8 8 8 9 10 10 11 11 9 9 9 9 9 9 8 7 7 7 7 7 6 6 6 5 4 4 4 3 3 4 5 4 3 4 3 3 3 3 2 2 1 1
2 1 1 1 1 1 4 6 5 5 7 7 6 6 7 8 9 9 8 8 7 7 8 7 6 5 5 7 10 11 9 8 8 8 7 6 8 11 12 12 11 10 9 9 8 7 7 8 8 9 9 9 8 7 7 7 7 7 6 6 6 6 6 6 5 5 4 4 4 3 3 3 3 3 4 4 4 4 3 2 3 3 2 2 2 1
1 1 0 1 2 4 6 6 4 4 6 8 8 8 7 8 9 9 10 10 9 9 9 9 8 7 5 7 10 12 12 10 10 9 7 6 8 11 11 11 11 10 8 7 6 5 6 7 8 8 9 8 7 6 6 6 5 5 5 5 5 5 6 5 5 4 4 3 3 3 3 3 4 4 4 5 5 4 3 2 3 3 3 3 2 1
2 2 1 2 4 2 4 4 2 1 4 6 7 7 7 8 8 9 10 11 11 10 8 8 8 8 6 6 7 9 10 10 12 14 11 8 10 12 10 8 9 10 7 6 4 4 5 7 7 8 9 8 7 6 6 5 5 5 4 4 4 5 5 5 5 4 4 3 3 3 2 3 3 3 3 4 5 5 3 2 2 2 2 3 3 2
1 2 2 2 0 3 5 4 3 2 4 6 5 5 6 6 7 8 9 10 10 10 9 7 6 6 6 4 3 5 7 9 13 15 13 11 13 17 18 16 14 13 11 7 4 4 6 7 6 8 9 8 7 6 6 5 5 5 4 4 4 4 4 4 4 4 4 4 3 3 2 2 3 3 3 3 4 5 4 4 4 4 3 2 2 2
Wind_Direction
191 197 202 205 210 198 194 214 213 335 325 216 195 232 160 137 100 116 131 132 154 187 195 215 195 151 155 159 160 166 170 176 169 164 169 167 168 169 169 168 166 169 164 161 167 167 165 163 160 160 161 164 163 164 165 166 166 162 159 156 153 153 150 150 152 155 157 152 151 154 157 158 156 154 153 155 157 153 147 145 148 149 149 149 148 144
194 207 206 202 204 189 191 218 236 264 271 232 198 204 189 122 99 112 140 141 168 208 179 217 209 159 158 160 162 169 172 178 172 168 171 169 171 172 170 168 165 167 163 162 166 167 168 165 162 162 163 166 166 167 170 171 170 168 166 161 158 158 157 159 159 159 161 158 157 157 161 158 151 155 159 159 160 153 149 150 153 153 152 150 149 149
196 215 207 192 158 179 213 224 227 240 243 226 204 202 182 127 115 103 128 147 178 233 162 200 210 165 165 161 163 175 177 179 175 171 172 171 173 174 172 168 167 169 166 166 168 171 171 167 166 166 166 170 170 171 173 174 173 171 170 166 164 162 161 162 160 160 159 157 152 144 152 152 146 152 154 151 153 150 151 156 159 160 159 156 153 155
194 214 201 173 158 202 207 212 210 222 227 214 218 216 132 152 160 102 135 152 178 222 155 175 190 171 170 162 169 184 180 178 179 176 174 174 177 177 174 171 171 172 169 170 173 174 172 169 170 170 170 172 172 175 176 176 176 175 175 171 168 166 164 164 163 162 155 148 140 130 137 139 135 143 141 139 147 151 153 158 164 168 168 163 159 160
188 195 187 162 181 211 201 195 205 215 204 200 233 252 112 159 168 85 131 142 157 189 146 162 178 174 174 168 171 184 186 183 183 183 178 179 184 181 178 177 175 174 173 174 176 176 174 172 172 170 171 173 175 179 179 179 179 177 177 174 170 169 167 167 168 164 154 147 143 136 140 141 135 141 148 153 156 159 162 165 169 172 172 168 163 164
181 118 179 178 184 213 213 197 204 225 213 183 217 254 78 159 135 114 138 144 162 189 169 175 190 176 178 180 174 174 189 189 186 191 186 180 185 184 184 183 179 177 176 178 178 176 176 174 171 169 173 177 178 181 182 181 180 177 177 175 172 172 172 171 171 168 158 154 155 153 156 157 154 156 162 167 165 164 169 169 167 170 172 171 167 166
162 134 187 195 190 204 218 211 198 226 241 173 154 198 23 156 143 138 151 161 180 179 175 187 201 162 176 192 185 173 188 193 187 195 192 181 180 183 187 186 181 179 177 180 181 178 178 175 172 171 176 181 180 180 180 179 179 178 176 175 174 174 174 173 173 171 166 163 164 166 167 165 165 164 164 168 165 163 167 163 162 168 173 175 174 170
149 149 182 196 203 205 214 215 187 216 249 98 87 126 160 155 160 154 153 169 163 111 165 185 183 186 197 199 191 180 189 194 189 195 194 184 181 183 187 185 180 181 180 179 182 180 179 177 175 175 178 182 180 176 177 178 178 177 176 176 176 175 176 175 174 174 171 170 170 172 172 169 170 163 158 164 162 160 164 162 164 168 171 176 179 177
170 185 183 193 207 209 213 215 175 213 244 54 69 186 155 152 166 156 161 183 170 160 181 180 174 191 220 182 183 188 194 195 191 195 194 187 185 184 187 185 180 182 182 181 182 182 181 180 179 179 178 180 178 172 174 176 176 177 178 178 179 179 178 177 177 177 177 176 174 176 173 169 170 159 155 162 162 161 165 167 170 171 171 176 179 181
173 202 197 202 211 214 216 217 190 219 244 72 121 181 146 154 159 162 194 190 173 221 212 174 178 196 202 163 176 195 201 198 192 193 194 188 187 187 187 188 183 181 184 184 184 183 182 183 183 181 179 178 177 173 172 174 174 175 178 180 183 184 182 180 180 180 182 182 180 181 176 169 169 164 160 162 162 165 169 172 177 177 178 181 182 183
128 187 228 225 226 236 229 207 218 232 241 136 168 171 147 152 155 174 201 137 189 247 192 166 182 203 208 166 175 190 195 197 192 190 193 188 188 190 187 189 187 182 184 185 186 185 185 186 185 182 180 179 178 174 173 174 175 176 179 181 186 188 187 184 183 183 185 186 185 186 181 173 173 174 172 168 167 170 174 176 177 178 183 186 185 184
157 186 207 221 231 254 254 192 209 223 212 196 192 182 163 154 165 181 168 174 225 241 143 160 180 204 230 171 173 182 176 188 195 192 191 188 189 191 188 191 190 184 184 184 185 188 187 185 185 185 183 180 179 178 177 179 178 178 180 182 186 190 191 189 187 187 187 188 189 189 186 181 178 180 182 177 174 175 178 179 175 173 178 184 188 186
199 204 200 209 217 227 234 208 188 199 203 208 204 197 195 180 184 198 186 200 227 179 127 156 174 201 243 177 167 180 184 188 196 200 195 188 188 190 189 190 189 186 186 185 185 189 189 185 185 188 186 181 182 182 182 182 181 180 181 183 187 190 192 192 191 190 190 190 191 191 189 188 184 183 185 182 180 180 181 182 181 179 179 181 188 188
195 206 206 214 210 206 223 222 187 189 202 206 201 204 213 199 197 209 201 203 217 167 131 144 167 202 220 150 157 178 190 189 189 201 207 195 188 188 189 189 187 188 189 187 187 189 190 186 186 189 187 186 188 187 186 186 183 182 181 185 189 190 192 194 194 193 194 193 193 193 192 191 191 188 187 187 185 183 182 184 187 187 184 184 187 187
203 203 199 208 202 185 207 229 220 195 200 206 202 209 223 222 216 216 217 218 196 120 120 147 173 216 165 136 145 167 177 187 192 191 197 207 200 191 189 188 186 187 189 192 190 189 190 189 188 190 191 193 194 191 190 187 183 182 182 184 189 191 192 194 196 196 197 197 196 195 195 194 195 194 191 190 189 188 188 186 187 190 189 187 184 182
233 246 178 195 199 182 196 217 227 208 201 205 207 213 221 228 227 220 255 271 110 113 147 176 194 43 111 146 149 151 162 184 192 179 175 202 212 202 194 189 188 186 186 192 194 192 192 192 192 193 195 198 197 195 192 187 183 183 182 184 188 192 193 194 198 199 199 201 199 198 198 197 198 199 195 192 192 192 191 186 185 188 187 181 174 176
237 242 151 181 196 196 201 201 203 215 212 195 207 218 224 244 250 236 238 278 258 206 180 184 202 148 142 171 165 160 167 178 182 175 173 187 205 207 198 188 189 189 187 191 194 195 195 194 194 195 198 199 198 195 192 188 187 184 182 183 187 192 194 195 197 200 201 202 202 201 201 201 201 203 202 199 195 193 190 187 187 185 183 178 175 176
263 223 152 180 199 201 207 201 197 217 233 211 205 210 211 254 267 256 240 222 233 233 173 184 217 184 173 189 171 177 183 181 183 182 180 184 193 203 202 194 193 191 190 190 192 196 196 194 194 195 197 199 199 196 191 189 188 185 184 185 188 192 196 197 197 200 202 202 204 204 204 205 205 205 206 204 198 193 189 189 189 185 182 182 183 177
287 255 155 180 199 187 191 206 200 208 227 238 231 213 208 224 228 220 237 233 225 235 194 177 207 208 200 182 171 187 190 181 185 187 187 186 186 194 203 202 198 193 190 190 190 193 193 192 192 192 194 196 197 195 191 189 188 187 187 188 191 195 197 198 199 200 201 202 204 206 205 206 207 207 208 205 199 196 194 193 191 188 184 184 185 180
257 259 160 170 188 174 178 208 207 193 207 232 245 223 213 228 232 218 225 236 234 239 222 175 188 208 199 152 163 180 180 178 183 188 191 188 182 186 192 194 193 188 187 188 189 189 190 192 192 191 193 192 192 193 190 190 190 189 188 187 191 195 196 199 200 199 202 204 205 206 204 205 206 208 208 205 202 202 201 198 194 192 191 188 186 181
226 251 200 153 162 179 189 203 210 195 191 206 222 218 208 214 235 240 233 234 240 243 240 225 214 166 86 64 152 160 163 175 182 184 189 185 180 182 181 181 180 178 183 186 186 188 189 192 193 190 189 188 188 191 190 190 190 189 189 187 188 192 194 198 199 198 202 205 206 206 204 204 205 207 209 208 208 208 205 201 199 198 196 192 190 185
224 249 239 172 166 204 206 195 211 219 202 203 211 216 214 211 218 225 224 219 225 242 253 256 243 116 88 35 117 140 154 167 174 180 184 180 179 181 180 177 172 169 178 182 184 188 186 188 191 186 183 185 186 189 191 191 189 188 188 186 186 189 192 194 196 196 200 204 205 206 206 206 204 205 209 210 210 211 208 203 202 202 200 197 194 192
293 267 251 228 190 203 177 174 211 251 230 217 220 221 218 215 218 223 220 209 212 233 249 251 243 108 102 128 129 148 155 153 167 176 177 174 172 174 170 164 160 161 165 171 176 178 174 177 182 178 176 181 184 187 190 190 188 188 187 184 184 187 187 190 193 193 194 199 203 205 206 207 206 204 207 209 211 214 212 207 203 203 205 205 199 194
257 247 241 244 219 158 103 149 206 239 234 226 224 225 224 220 222 228 233 226 216 219 224 233 227 139 111 133 142 160 162 156 165 170 170 170 167 169 164 149 146 147 144 150 152 150 155 162 169 172 174 178 181 185 187 188 188 188 187 185 185 186 186 186 189 190 190 195 201 204 205 206 207 206 207 209 211 215 216 213 207 205 207 210 206 198
221 240 233 227 202 180 175 187 198 204 217 229 224 221 225 226 226 229 229 228 230 226 227 240 239 125 116 153 154 160 173 168 163 165 170 172 172 174 169 152 147 146 142 142 139 144 155 158 162 170 175 178 182 185 186 189 190 189 187 186 184 183 183 184 185 185 188 194 197 199 202 205 207 209 209 211 212 212 215 217 214 211 211 213 213 206
240 262 258 240 217 199 190 190 195 193 202 219 225 220 221 227 231 230 220 218 230 229 226 240 251 119 129 165 165 164 176 171 159 162 167 170 175 175 173 168 164 159 159 161 159 166 172 166 167 172 173 179 185 187 187 190 193 191 190 188 185 181 180 180 181 181 185 190 193 193 198 204 209 211 210 212 216 214 212 215 217 217 216 216 216 214
243 205 263 286 282 274 210 77 10 203 193 200 211 214 216 225 231 231 230 228 224 226 230 231 230 188 162 173 175 172 177 172 162 162 161 163 171 175 178 182 182 176 167 158 158 167 175 184 191 186 176 176 183 185 186 189 192 192 189 188 186 181 179 177 177 180 183 185 188 190 194 203 211 215 215 215 219 218 215 215 217 219 219 218 217 218
247 185 150 7 35 34 32 50 35 136 185 189 204 211 212 216 222 228 235 234 221 232 242 205 196 216 193 171 175 177 175 170 169 174 167 162 166 166 169 179 185 186 176 161 162 173 181 191 199 192 183 177 179 182 184 186 187 188 190 190 186 181 181 180 176 179 184 183 184 186 190 198 205 211 216 217 217 217 217 218 218 216 217 217 218 220
258 197 136 23 79 74 74 103 107 126 134 129 160 201 209 209 215 225 234 237 225 235 250 174 189 223 196 164 170 173 168 166 171 177 171 165 168 164 164 174 184 187 180 174 174 176 181 187 185 179 179 181 180 181 184 181 179 185 189 190 189 185 186 184 178 182 186 182 181 182 181 185 195 204 213 215 216 217 217 218 217 213 214 216 219 223
275 200 320 300 98 84 84 112 126 137 125 103 84 76 128 207 213 229 236 237 233 245 278 236 209 220 128 150 158 156 158 162 163 165 164 170 174 174 179 184 186 186 183 178 175 173 176 181 176 167 170 179 183 185 189 181 175 180 185 187 186 180 179 182 182 187 189 181 179 182 178 179 189 202 211 214 217 220 217 215 214 214 216 217 219 223
287 215 282 280 171 98 89 116 127 136 128 98 67 49 34 89 188 210 225 226 232 235 245 233 214 179 104 131 140 138 149 157 155 158 164 169 172 175 181 179 177 181 179 174 174 174 173 178 178 170 169 176 179 176 175 171 167 170 174 178 175 162 164 178 183 187 188 181 181 187 185 186 193 201 210 216 218 219 218 216 216 217 218 217 216 219
302 229 231 254 216 114 85 123 131 135 144 101 53 29 16 16 46 162 342 325 282 246 211 209 217 169 122 131 135 138 150 158 156 156 158 158 163 172 172 162 160 165 162 159 165 168 162 164 173 173 169 167 163 155 150 150 156 162 167 168 163 157 168 181 183 185 187 185 191 196 193 193 196 199 208 215 218 220 222 222 221 221 223 224 222 221
325 268 223 236 219 152 65 46 136 171 189 136 40 15 3 7 4 355 31 36 339 306 243 209 323 69 133 143 145 147 155 159 156 152 154 155 159 160 151 143 147 149 142 136 133 133 132 125 125 135 134 132 136 140 141 143 147 152 154 151 150 155 167 174 176 178 175 175 188 198 199 199 202 203 209 214 218 222 223 223 225 227 228 229 230 227
321 279 243 248 227 212 289 331 250 213 206 149 49 15 5 11 6 355 5 24 16 357 16 37 25 101 149 154 152 152 156 158 154 153 158 161 156 147 141 140 138 133 127 120 113 111 111 104 91 88 95 97 100 112 123 128 130 130 129 128 131 139 146 147 147 148 144 142 154 172 184 190 197 204 208 210 211 210 213 217 222 226 228 229 229 228
308 270 243 244 226 221 254 273 238 217 153 102 69 29 12 2 355 346 351 30 31 22 23 28 54 117 154 162 153 150 152 149 149 151 155 159 155 146 142 140 136 132 125 118 113 111 110 105 98 96 101 101 98 103 112 116 117 116 113 112 110 112 118 123 123 124 124 119 118 128 139 143 151 164 172 182 190 190 195 203 206 212 218 220 221 223
319 276 241 239 220 211 218 228 224 188 108 108 62 23 11 352 344 333 193 77 33 6 8 23 65 116 166 169 147 142 141 136 136 141 145 153 155 151 147 144 139 134 123 115 111 107 107 107 103 101 105 106 103 101 104 108 112 111 107 105 102 98 99 102 101 102 107 110 110 113 117 118 120 125 129 136 149 157 166 174 179 186 197 203 207 211
324 297 247 224 210 220 223 215 185 155 143 119 56 18 3 354 345 329 3 63 24 354 353 17 69 140 166 154 139 140 141 136 133 133 136 142 140 137 140 139 134 125 118 115 112 107 107 108 105 104 107 108 107 104 102 106 109 107 102 100 98 94 89 85 81 82 88 95 99 103 110 117 120 123 127 129 131 134 138 142 148 152 157 169 178 180
323 316 290 236 202 225 232 216 196 200 195 85 41 10 349 339 327 309 281 60 23 2 354 16 80 148 163 148 140 146 152 151 147 134 124 125 119 119 128 129 123 118 115 115 116 113 112 110 107 106 107 106 107 108 108 108 106 103 99 98 99 97 89 77 69 68 75 81 84 92 102 113 120 125 132 134 135 138 135 131 133 133 130 132 135 132
260 258 277 248 212 212 229 222 217 214 179 45 12 350 344 339 316 281 228 112 24 1 346 17 90 151 167 154 152 163 172 171 155 137 130 127 119 121 127 123 115 114 117 121 124 122 118 117 116 113 108 105 107 111 112 111 107 102 98 98 100 97 92 86 77 68 72 77 81 89 97 102 110 118 124 126 127 127 124 121 121 122 119 119 116 110
265 217 235 239 217 208 228 229 218 131 72 27 351 338 348 357 314 252 216 130 14 349 334 348 66 159 161 157 166 181 197 201 152 139 140 136 124 123 129 126 122 125 129 129 129 125 123 127 129 125 120 119 119 118 117 116 112 105 102 101 98 92 88 89 85 75 79 84 85 92 97 99 102 105 107 109 109 107 109 112 116 116 112 110 107 102
50 327 263 244 221 205 222 223 173 93 52 359 339 333 338 334 261 245 232 10 349 334 323 325 3 150 157 164 177 188 208 72 128 137 141 140 133 129 130 131 132 135 135 131 129 129 129 129 127 122 119 120 122 120 119 116 111 107 105 102 97 91 90 92 89 83 87 93 92 94 97 100 101 100 99 104 108 107 106 107 109 110 107 106 109 106
14 342 238 252 264 235 221 221 186 115 46 344 326 321 326 305 241 326 350 331 326 328 317 309 329 145 168 178 181 161 96 90 114 136 144 144 140 137 138 139 139 138 134 130 130 131 129 123 117 115 112 112 114 115 115 112 106 104 104 103 100 102 106 106 102 97 92 95 96 95 95 99 103 104 101 102 104 103 101 103 106 108 110 111 114 114
350 316 152 78 343 276 215 214 207 136 38 348 327 323 358 357 346 345 337 324 332 340 315 298 313 148 178 173 152 129 110 107 124 144 148 145 142 140 142 144 143 141 138 137 136 133 127 123 121 120 117 114 113 115 116 113 108 103 102 102 105 112 115 112 110 108 105 101 99 97 98 99 102 107 107 105 103 101 101 106 109 112 117 120 119 119
4 332 10 57 16 302 239 132 68 51 23 358 352 14 22 2 341 327 325 325 340 350 329 310 359 80 185 173 142 120 115 125 141 145 142 146 146 143 143 145 145 145 143 142 141 137 130 128 126 122 117 113 112 116 119 118 114 109 104 102 107 113 115 116 118 120 119 110 103 104 107 105 103 106 108 108 109 107 108 111 113 117 125 128 126 123
33 1 351 31 40 26 39 69 69 47 30 23 30 33 13 1 353 339 333 331 340 352 347 335 357 23 204 166 130 117 121 131 129 114 115 136 138 133 137 141 142 142 141 139 139 139 134 130 126 120 115 112 111 113 117 121 121 118 114 114 116 116 116 120 124 125 120 114 113 115 118 120 122 121 117 119 122 120 120 126 131 137 140 141 141 134
55 351 304 351 94 94 74 73 77 58 45 47 52 45 26 19 16 3 359 4 359 354 353 353 3 359 181 134 117 114 119 121 114 104 100 108 110 109 118 127 127 126 127 128 130 133 130 123 118 114 109 106 105 107 110 116 119 117 117 120 120 117 116 115 113 110 110 113 120 126 133 138 141 138 135 134 134 132 133 135 135 137 144 155 156 143
93 305 285 152 147 156 112 88 78 56 48 47 49 53 43 34 30 23 20 22 12 6 14 25 34 48 97 121 119 116 120 125 126 122 117 118 117 112 116 125 123 117 117 116 114 117 117 112 109 107 103 98 96 98 101 105 110 113 116 119 117 115 114 111 108 109 112 117 123 130 139 141 139 145 152 154 153 150 146 142 138 133 129 134 132 127
110 285 277 121 115 103 105 109 104 81 69 58 46 48 43 36 37 35 31 32 30 31 38 42 52 75 104 122 117 114 121 128 119 106 104 120 123 116 117 124 120 112 112 113 110 108 109 108 107 103 97 92 88 87 92 97 104 111 114 113 111 112 111 109 108 110 114 119 123 128 135 139 145 155 156 157 156 145 131 134 144 136 114 79 50 29
187 230 136 152 160 127 121 130 144 130 98 75 56 49 41 34 40 41 37 40 40 41 47 51 54 66 97 123 120 117 119 121 117 110 103 104 110 107 107 112 111 108 108 109 109 111 110 112 115 111 105 99 90 86 87 88 93 103 109 109 114 120 120 117 111 108 109 112 114 120 135 151 165 166 159 158 153 129 86 66 92 103 94 79 59 42
233 195 131 234 229 163 114 106 110 138 100 76 57 46 37 33 41 43 40 41 41 38 43 53 58 63 78 111 138 147 144 143 151 151 142 132 129 127 127 129 124 124 121 104 95 112 118 118 127 128 120 112 104 98 96 91 89 96 101 104 114 122 125 126 125 124 124 118 111 116 131 142 149 152 157 162 151 135 114 88 94 106 103 94 90 100
316 14 20 298 278 84 81 77 55 36 73 75 59 46 38 29 33 43 42 40 42 40 39 44 54 59 64 79 133 172 171 168 171 170 166 166 161 158 166 176 172 167 167 164 158 150 134 131 147 144 129 122 121 119 117 111 105 102 100 103 111 119 126 133 135 135 136 129 116 113 119 128 134 144 161 169 159 156 159 150 144 158 176 155 119 101
Height
786 796 798 794 788 782 782 781 782 783 781 783 788 792 798 809 819 815 815 816 813 823 825 819 820 815 810 811 810 809 810 814 816 817 817 818 820 822 823 825 826 827 826 827 831 834 836 839 841 844 845 847 849 851 853 854 856 857 859 860 862 863 865 866 867 868 869 870 871 871 872 873 874 876 876 877 878 878 879 880 881 882 883 883 883 884
787 797 794 783 779 776 778 779 777 781 783 782 787 791 793 809 824 815 812 816 815 822 825 819 817 812 810 812 810 809 813 815 815 818 819 818 820 821 822 825 826 826 825 826 830 832 835 838 840 843 844 847 848 850 852 853 855 857 858 860 861 863 864 865 867 868 869 869 870 871 872 872 873 875 876 877 877 878 879 880 881 882 882 883 883 884
797 796 784 775 776 779 780 779 780 784 784 783 784 787 795 808 820 818 814 816 817 823 825 821 821 817 810 810 812 811 812 813 812 814 817 818 820 821 822 825 826 827 826 827 829 831 834 836 839 842 843 846 847 849 851 853 854 856 858 859 861 862 864 865 866 867 868 869 870 871 872 872 873 874 875 876 877 878 879 880 881 881 882 883 883 884
800 790 776 774 779 783 785 783 784 785 783 784 782 786 801 807 810 818 820 819 818 819 822 823 827 826 819 816 818 813 810 811 811 812 814 815 819 819 819 822 824 827 828 828 828 829 832 835 838 840 842 844 846 848 850 852 854 855 857 859 860 862 863 865 866 867 868 869 870 871 872 872 873 874 875 876 877 878 879 880 881 881 882 883 884 884
790 780 772 777 783 783 786 786 786 787 784 784 780 784 800 802 799 809 816 820 823 821 819 823 833 833 825 826 825 815 811 812 813 814 816 816 816 817 818 819 822 824 826 828 828 828 830 833 836 838 841 843 845 847 849 851 852 854 856 858 860 861 863 864 865 867 868 869 870 871 872 873 873 874 875 876 877 878 879 879 880 881 882 883 884 884
781 778 775 782 786 784 786 787 785 784 782 784 783 779 787 793 797 806 812 818 831 833 821 822 842 843 824 822 823 818 817 816 815 816 817 818 817 818 820 820 820 821 823 825 825 827 829 831 834 837 840 842 843 845 847 850 851 853 855 857 859 861 862 864 865 866 867 868 870 871 871 872 873 874 875 876 876 877 878 879 880 881 882 882 883 884
777 778 779 784 787 786 788 786 781 780 781 785 783 776 780 787 795 806 809 814 826 830 819 817 839 846 832 823 818 817 822 818 817 818 816 817 819 819 820 820 820 820 822 823 824 825 828 830 833 836 838 840 842 844 846 849 851 853 855 856 859 860 862 864 865 866 867 868 869 870 871 871 872 873 874 875 876 877 878 879 880 881 882 882 883 884
777 783 784 784 787 788 790 787 780 779 784 786 779 776 783 788 795 802 809 819 822 821 821 819 828 843 842 830 817 815 822 819 817 820 817 816 818 819 819 818 818 819 820 823 824 825 826 829 831 834 836 838 840 842 845 847 850 852 855 856 858 860 861 863 864 866 867 868 869 870 871 871 872 873 874 875 876 877 878 879 880 880 881 882 883 884
778 786 787 786 789 790 786 781 776 779 785 784 778 777 781 787 793 800 811 822 818 821 832 824 820 840 846 830 819 818 821 820 818 819 817 815 816 817 817 816 816 818 818 820 823 824 825 827 830 832 834 837 838 841 844 846 849 851 854 856 858 859 861 862 864 865 867 868 869 870 871 871 872 873 874 875 876 877 878 879 880 880 881 882 882 884
778 779 779 782 788 786 779 775 774 780 784 778 776 778 780 785 791 799 809 812 813 823 832 823 817 834 844 833 828 829 825 822 817 815 813 812 814 814 814 814 814 816 817 818 820 822 824 827 829 831 833 835 837 839 843 845 848 851 853 855 857 859 860 862 863 865 866 868 869 870 871 871 872 873 874 875 876 877 878 878 880 880 881 882 882 883
777 774 774 778 780 777 774 775 776 778 779 776 779 783 785 789 792 797 800 803 822 830 817 810 812 823 835 830 826 829 824 816 812 812 811 810 812 812 812 812 812 814 816 817 819 821 824 826 827 830 831 834 837 839 842 845 847 850 852 854 856 858 860 861 863 864 866 867 868 869 870 871 872 873 874 875 876 877 877 878 879 880 881 882 882 883
781 782 781 776 773 773 776 780 779 775 776 779 785 789 796 801 799 804 807 812 837 840 811 800 805 816 829 824 818 819 813 809 810 810 809 810 811 810 809 810 810 812 814 815 818 820 822 825 826 829 831 833 836 838 841 844 846 848 851 853 855 857 859 861 862 864 865 867 868 869 870 871 872 873 874 875 875 876 877 878 879 880 881 882 882 883
784 782 779 775 772 773 781 786 784 781 779 783 789 795 808 817 818 822 823 822 833 830 807 796 805 819 821 810 808 813 808 807 808 805 804 806 808 808 808 808 808 809 812 813 817 819 820 823 826 828 830 833 835 838 840 842 844 847 850 852 854 856 858 860 862 863 865 866 867 869 870 871 872 873 874 874 875 876 877 878 878 879 880 881 882 882
790 784 777 779 777 772 778 785 789 789 785 785 791 799 809 819 831 836 826 819 825 820 800 794 809 819 812 800 800 805 804 804 805 805 803 800 802 806 806 806 807 809 811 812 814 817 818 821 825 827 830 832 834 836 839 841 843 846 848 851 853 855 857 859 861 863 864 866 867 868 869 870 871 872 873 874 875 875 876 877 878 878 879 880 881 882
794 793 780 779 778 772 776 778 778 781 783 781 779 787 799 804 817 829 821 814 824 825 808 803 813 813 809 804 795 793 796 796 800 804 804 801 800 801 803 804 807 809 810 811 812 815 817 820 824 826 828 831 833 835 837 839 842 844 847 849 852 854 857 859 860 862 864 865 866 868 869 870 871 872 873 874 874 875 876 876 877 878 879 879 880 881
790 788 769 766 767 767 775 772 765 775 787 781 772 783 794 786 789 805 805 797 810 829 822 811 808 798 796 799 790 789 795 794 798 802 806 808 803 800 803 804 805 807 809 811 812 813 815 818 822 824 827 829 831 833 835 837 840 842 845 848 850 853 855 857 859 861 863 864 866 867 868 869 870 871 872 873 874 874 875 876 877 877 878 879 880 881
791 784 765 764 767 764 769 768 765 775 784 781 780 788 782 768 772 792 800 792 799 822 819 806 804 794 794 799 791 790 796 796 798 802 806 810 806 803 803 803 804 806 807 809 811 812 813 816 820 822 825 827 829 832 834 836 838 840 843 846 849 852 854 856 858 860 862 863 865 866 867 869 869 870 871 872 873 874 874 875 876 877 878 878 879 880
784 782 768 767 775 766 759 763 765 765 768 777 787 783 772 772 776 784 803 808 808 818 813 803 803 799 804 811 799 792 797 798 799 800 803 807 807 806 804 802 803 803 805 807 808 810 812 815 818 821 823 825 827 830 832 835 837 839 842 844 847 850 852 854 856 858 860 862 864 865 866 868 869 869 870 871 872 873 874 874 875 876 877 878 879 879
779 785 774 765 772 767 758 766 774 767 761 769 776 769 772 793 796 790 803 815 816 819 814 807 803 795 798 804 800 796 795 796 799 799 800 803 806 807 805 803 802 802 804 806 807 809 811 813 817 819 821 824 826 828 831 833 836 838 840 843 845 848 850 853 855 857 859 860 862 864 865 866 868 869 869 870 871 872 873 873 874 875 876 877 878 878
776 786 782 766 763 766 766 773 780 777 769 768 771 767 769 785 789 786 791 797 808 816 812 814 813 798 787 786 789 792 789 790 797 799 798 800 803 805 804 803 802 802 804 805 806 807 808 811 814 817 820 822 824 827 829 832 834 836 839 841 844 846 849 851 853 855 857 859 860 862 863 865 866 867 868 869 871 871 872 873 873 874 875 876 877 878
775 783 785 773 766 771 775 774 772 774 775 777 782 780 777 779 778 781 783 780 794 809 808 814 816 799 786 782 782 784 784 785 791 795 797 797 799 803 803 802 802 802 803 803 804 805 807 810 812 815 819 821 823 826 828 830 832 835 837 839 842 845 847 850 852 854 856 857 859 860 861 863 864 866 867 868 870 870 871 872 873 874 874 875 876 877
777 780 781 776 776 777 771 762 758 760 764 770 777 776 776 778 780 795 802 786 783 795 797 802 810 801 790 786 782 781 782 783 785 790 794 795 797 801 802 801 802 802 802 802 801 802 805 808 810 813 817 819 822 825 826 829 831 833 836 838 841 843 845 848 850 852 854 856 858 859 860 862 863 864 866 867 868 869 870 871 872 873 874 874 875 876
775 778 780 777 771 767 761 753 754 757 756 759 765 763 765 770 776 793 804 792 784 789 786 790 803 802 791 785 784 781 780 781 783 787 792 794 796 799 801 801 802 802 802 801 800 801 804 807 810 812 816 818 821 823 825 828 829 832 834 836 839 841 843 846 848 850 853 854 856 857 859 860 861 862 864 865 866 867 868 870 871 872 873 873 874 875
778 780 785 781 769 762 759 756 756 758 759 763 762 757 759 765 767 772 778 780 787 791 788 794 804 802 793 786 785 785 782 782 784 785 790 794 795 799 801 803 804 804 804 803 802 803 805 807 810 812 815 818 820 823 825 827 828 831 833 835 837 840 842 844 846 849 851 852 854 856 857 859 860 861 862 863 864 866 867 868 869 870 871 872 872 873
782 783 785 788 786 783 780 776 772 768 767 768 763 757 757 759 760 763 765 776 789 787 784 798 805 799 794 789 787 789 787 785 785 784 788 792 795 798 801 803 805 806 807 807 807 807 807 807 809 812 815 817 819 822 823 826 828 829 832 834 836 838 840 843 845 847 849 851 853 854 856 857 858 859 860 861 862 863 865 866 867 868 869 870 871 872
781 784 785 791 796 796 794 790 781 773 769 766 762 759 760 760 762 767 773 788 799 789 783 793 798 794 794 791 789 791 790 789 788 786 787 790 793 796 799 803 805 806 808 809 809 810 809 809 810 812 814 816 819 821 823 825 827 829 831 833 834 837 839 841 843 845 847 849 851 852 854 855 856 857 858 860 860 861 863 865 866 867 868 869 870 870
779 782 783 788 790 786 786 782 772 765 766 769 768 766 766 764 763 767 778 787 791 789 789 787 785 790 794 793 791 791 790 792 793 791 791 792 794 795 797 800 803 805 808 808 809 811 812 812 812 813 815 817 818 820 822 823 826 828 830 832 833 835 837 839 841 843 845 847 848 850 852 853 855 856 857 858 859 860 861 863 864 865 866 867 868 869
781 783 781 782 781 777 776 775 770 765 767 769 769 768 766 765 765 770 778 776 774 788 796 784 776 784 787 785 788 788 788 792 796 795 795 795 796 797 798 799 801 803 806 808 809 811 812 813 814 814 815 817 818 820 822 823 825 827 829 831 832 833 835 837 839 841 843 845 846 848 850 851 853 854 856 857 858 859 860 861 863 864 865 866 866 867
781 783 779 776 777 774 771 770 769 768 768 768 769 769 767 766 769 772 772 767 770 786 793 781 776 778 775 776 782 782 783 790 795 795 794 795 797 798 800 801 802 802 804 807 809 810 811 813 813 814 815 816 818 820 821 823 825 826 828 830 831 832 834 836 837 839 841 842 844 846 848 850 852 853 855 856 857 858 859 860 861 862 863 864 865 866
781 784 780 775 775 774 771 770 769 767 769 771 772 772 771 770 770 771 770 769 772 779 779 776 778 776 769 771 775 776 779 786 791 793 795 797 798 799 800 802 802 802 803 805 807 809 811 812 812 813 815 816 818 819 821 822 824 825 827 829 831 832 834 835 836 838 840 841 843 845 846 847 849 851 853 855 856 857 857 859 860 860 861 862 863 864
782 786 782 776 776 777 773 770 769 769 772 776 778 777 775 774 773 774 774 774 775 779 777 776 781 779 770 769 772 776 781 786 791 796 797 798 799 799 800 802 803 804 803 804 806 808 809 810 812 813 814 816 817 818 820 822 823 824 826 828 830 832 833 835 836 837 839 840 841 844 845 846 848 849 852 853 854 855 856 857 858 859 860 860 861 863
781 784 781 778 783 782 774 772 773 770 771 777 784 786 784 781 779 778 777 777 778 780 779 779 782 780 773 772 776 781 785 790 795 797 798 799 800 800 801 802 804 805 805 805 807 808 809 810 811 813 815 816 817 818 819 821 822 824 826 827 829 831 833 834 835 836 838 839 840 842 843 845 846 847 849 851 853 854 855 856 857 857 858 859 860 861
784 785 781 782 790 788 776 773 773 772 780 791 793 792 790 786 783 780 778 778 777 776 780 786 787 780 774 775 781 785 789 793 795 796 798 799 799 800 802 804 805 806 806 808 810 810 811 812 814 815 817 817 819 819 820 821 823 825 826 827 828 830 832 833 834 836 837 838 839 841 841 843 845 846 848 849 851 852 853 855 856 856 857 858 858 859
786 786 783 785 794 793 780 773 774 782 798 803 793 787 788 787 786 786 782 780 777 776 780 785 784 779 776 777 782 786 790 791 792 793 794 795 797 801 804 805 806 808 809 811 813 814 815 816 818 819 820 820 821 821 822 823 825 826 827 828 830 831 832 833 834 836 837 837 838 839 840 842 843 844 846 847 849 850 851 853 854 854 855 856 857 858
786 785 784 784 789 791 783 784 798 808 805 796 786 783 784 784 783 785 784 782 780 779 780 782 782 781 779 778 779 784 788 789 789 791 792 793 795 800 805 807 808 809 811 813 815 817 818 819 820 820 821 822 824 824 824 825 826 827 828 829 831 833 834 835 835 836 837 838 838 839 840 841 842 843 844 845 847 848 849 851 852 853 854 854 855 856
789 786 786 784 787 794 794 800 815 815 798 789 788 786 783 784 784 784 787 786 783 782 782 783 784 782 780 779 779 784 788 789 791 793 793 794 795 798 804 808 809 810 812 815 817 819 821 822 822 822 823 825 825 826 826 827 828 828 828 830 832 834 836 837 837 838 838 838 839 840 840 841 842 843 844 845 847 848 849 851 851 852 853 853 854 855
791 789 787 787 791 795 797 800 806 806 799 798 798 794 791 793 793 792 795 794 787 782 782 784 785 783 781 781 784 787 790 794 799 800 796 795 797 799 803 808 810 813 815 817 820 821 822 825 825 826 828 828 828 829 830 831 832 831 831 832 834 836 838 838 838 839 839 840 840 841 842 842 843 844 845 846 847 848 850 851 851 852 852 853 854 855
791 790 789 792 793 790 794 800 805 812 814 809 803 798 795 795 795 794 797 797 790 784 782 783 786 785 783 786 790 793 795 801 808 808 802 800 802 803 807 810 813 816 818 820 822 823 824 826 827 829 831 831 830 831 832 834 836 835 835 836 837 837 838 839 840 841 841 841 842 842 843 844 844 845 846 847 848 849 850 851 852 852 853 854 854 855
790 789 787 791 791 790 796 803 805 811 817 811 805 800 795 794 794 794 801 805 798 789 784 783 785 786 786 790 795 797 800 805 810 810 806 805 806 808 811 813 816 819 821 822 824 825 825 827 830 832 833 833 833 833 834 836 837 837 837 839 839 838 838 839 842 843 843 843 844 845 845 845 846 846 847 847 848 849 850 851 852 853 854 854 855 855
792 790 788 790 792 792 797 800 798 805 812 809 806 801 796 795 796 798 809 814 803 793 788 785 786 787 788 792 797 799 801 802 803 806 807 807 809 812 814 816 819 821 823 824 827 827 828 830 832 833 835 836 836 836 836 837 837 838 839 840 839 839 840 841 843 845 845 846 846 847 847 847 848 848 849 849 850 851 852 853 854 855 855 855 856 856
797 794 791 792 791 793 798 799 799 807 812 808 805 802 796 797 801 805 812 812 803 798 793 787 786 788 789 793 798 800 800 795 794 800 805 807 810 814 817 819 822 823 824 826 828 830 831 833 834 835 837 838 838 838 839 839 839 840 840 841 841 842 843 844 846 847 848 848 848 849 849 849 850 851 851 852 852 853 853 854 855 855 856 856 856 857
803 800 796 794 795 795 796 797 803 814 816 810 806 801 795 799 809 812 810 807 803 801 796 790 788 789 791 794 797 799 800 796 795 800 805 806 810 813 816 819 821 823 826 828 830 832 833 834 835 837 838 839 839 840 840 841 841 842 842 843 844 845 846 847 848 849 850 850 850 850 850 851 852 853 853 854 854 854 855 855 856 856 857 857 858 858
807 805 801 799 801 798 795 800 811 821 819 810 805 803 801 807 814 813 809 805 802 800 798 793 789 789 792 795 798 800 802 803 804 807 808 809 811 813 815 818 820 823 826 829 832 833 834 835 837 838 839 840 841 842 842 843 843 844 844 845 846 847 848 848 848 850 851 851 851 851 852 852 853 854 854 855 855 855 856 857 857 858 858 859 859 860
809 808 805 805 806 804 804 811 820 822 817 812 811 812 813 814 813 811 810 808 803 801 799 795 791 791 792 795 800 804 807 810 812 813 814 816 815 816 818 821 823 825 827 829 831 833 834 836 837 838 840 841 842 843 844 844 845 845 846 847 848 849 849 849 849 851 852 852 851 852 853 853 854 855 855 856 856 857 857 858 858 859 859 860 860 860
812 811 809 809 809 810 813 817 818 817 815 813 814 815 816 814 811 810 810 808 805 803 800 797 795 794 792 795 802 807 809 812 815 817 821 823 822 822 824 826 828 829 829 831 833 834 835 837 838 839 841 842 843 844 845 845 846 847 848 849 850 850 850 850 851 851 852 852 852 853 853 854 854 855 856 856 857 857 858 858 859 859 860 860 860 860
810 809 809 809 810 813 815 815 815 816 815 814 814 815 815 814 812 811 809 808 807 805 802 800 798 796 794 798 805 809 811 813 815 819 824 827 828 829 830 832 834 834 834 835 837 837 837 838 839 840 841 843 844 845 846 847 847 847 848 850 850 851 851 851 851 851 852 853 853 854 854 854 855 855 856 856 857 857 858 858 859 859 860 860 860 860
808 808 807 808 810 815 819 819 817 818 817 814 814 814 814 813 813 812 811 810 809 806 804 803 802 800 800 803 809 813 815 815 816 819 823 826 830 831 832 834 837 838 838 839 840 840 840 840 840 841 842 844 845 846 847 848 848 848 849 849 850 851 851 852 852 853 853 854 854 854 855 855 855 855 856 856 857 857 858 859 859 860 860 860 860 860
810 809 808 808 810 814 819 820 818 818 817 816 815 815 815 815 815 813 812 811 810 809 807 806 805 804 806 808 811 815 817 818 820 822 825 827 829 831 833 835 837 839 841 842 842 843 843 842 842 843 844 845 847 848 848 849 849 850 850 850 851 851 852 852 853 854 854 855 855 855 855 855 855 855 856 856 857 857 858 859 859 860 860 860 861 861
810 810 810 810 810 813 817 818 818 818 819 818 818 818 817 817 816 815 814 812 812 811 811 810 809 808 810 812 814 816 818 821 823 825 829 831 831 833 836 838 838 840 842 844 844 845 845 845 845 845 846 847 848 849 850 850 851 851 851 852 852 852 853 854 854 854 855 855 855 856 856 856 856 856 856 856 857 858 859 859 859 860 861 861 862 862
809 809 809 808 810 814 816 817 817 819 820 820 821 820 819 818 817 817 816 814 814 814 814 813 814 813 813 815 816 816 819 821 823 825 829 831 832 834 838 840 839 841 843 845 846 846 846 846 847 848 848 849 850 850 851 852 852 853 853 853 854 854 855 855 855 856 856 856 856 857 857 856 856 856 856 856 857 858 860 860 860 861 861 862 863 863
811 812 810 810 815 819 819 816 816 817 819 821 822 821 820 819 818 818 819 818 817 817 816 816 816 816 816 817 816 816 817 820 823 825 826 828 829 831 834 836 837 839 842 844 846 847 846 847 849 849 849 850 851 852 852 853 853 854 854 855 855 856 856 856 857 857 857 857 858 858 858 858 858 858 858 857 857 859 860 861 861 862 862 863 863 863